Tracking 17630 objects as of 24-May-2016
HD Live streaming from Space Station
objects crossing your sky now

COSMOS 2251 DEB

Track COSMOS 2251 DEB now!
10-day predictions


NORAD ID: 35448
Int'l Code: 1993-036AKS
Perigee: 754.6 km
Apogee: 777.7 km
Inclination: 73.9 °
Period: 100.0 minutes
Semi major axis: 7137 km
RCS: 0.0138 m2 (small)
Launch date: June 16, 1993
Source: Commonwealth of Independent States (former USSR) (CIS)
Launch site: PLESETSK MISSILE AND SPACE COMPLEX (PKMTR)

Note: This is SATELLITE DEBRIS
Your satellite tracking list
Your tracking list is empty





NASA's NSSDC Master Catalog

Two Line Element Set (TLE):
1 35448U 93036AKS 16143.68119819 +.00000556 +00000-0 +18564-3 0  9996
2 35448 073.9085 144.4979 0016226 324.2259 035.7807 14.39847900369711
Source of the keplerian elements: AFSPC

N2YO: 403